Location: Unspecified
(0.0000°N, 0.0000°E)
Time: 05:17:23
(UTC+02:00)

Atlas Centaur 2 - Visible Passes

Search period start: 29 March 2017 00:00
Search period end: 08 April 2017 00:00
Orbit: 459 x 1314 km, 30.4° (Epoch: 26 March)

Date Brightness Start Highest point End Pass type
(mag) Time Alt. Az. Time Alt. Az. Time Alt. Az.
29 Mar 2.6 07:00:04 23° NW 07:01:01 25° NW 07:04:18 10° NNE visible
30 Mar 3.1 06:57:26 18° NW 06:57:53 18° NW 07:00:42 10° N visible
31 Mar 3.6 06:54:44 13° NW 06:54:45 13° NW 06:56:46 10° N visible
